Regional Weather Roundup
Issued by NWS

Home | Current Version | Previous Version | Graphics & Text | Print | Product List | Glossary On
Versions: 1 2 3 4 5 6 7 8 9 10 11 12 13 14 15 16 17 18 19 20 21 22 23 24 25 26 27 28 29 30 31 32 33 34 35 36 37 38 39 40 41 42 43 44 45 46 47 48 49 50
000
ASUS43 KFSD 260202
RWRSD

WEATHER ROUNDUP FOR SOUTH DAKOTA
NATIONAL WEATHER SERVICE SIOUX FALLS SD
900 PM CDT MON JUL 25 2016

NOTE: "FAIR" INDICATES FEW OR NO CLOUDS BELOW 12,000 FEET WITH NO
SIGNIFICANT WEATHER AND/OR OBSTRUCTIONS TO VISIBILITY.


SDZ001>005-009-010-012>017-260300-
NORTHWEST AND NORTH CENTRAL SOUTH DAKOTA

CITY           SKY/WX    TMP DP  RH WIND       PRES   REMARKS
BUFFALO          N/A     83  50  31 SE14G22   29.92R
FAITH            N/A     86  50  28 S10       29.96R
MOBRIDGE       CLEAR     89  51  27 S12       29.89S
$$

SDZ012>016-024>037-041>051-057-063-072>074-260300-
SOUTHWEST AND SOUTH CENTRAL SOUTH DAKOTA

CITY           SKY/WX    TMP DP  RH WIND       PRES   REMARKS
RAPID CTY ARPT CLOUDY    83  58  42 SE3       29.98S
PIERRE         CLOUDY    86  54  33 SE10      29.93F
CUSTER         CLOUDY    76  49  38 S5        30.17F
ELLSWORTH AFB  CLEAR     81  59  47 SW7       29.98R
PHILIP         CLOUDY    88  57  34 S13       29.94S
PINE RIDGE     CLEAR     84  59  42 S10       30.04R
WINNER         FAIR      84  54  35 S9        30.02S
$$

SDZ004>011-016>023-039-040-260300-
NORTHEAST SOUTH DAKOTA

CITY           SKY/WX    TMP DP  RH WIND       PRES   REMARKS
ABERDEEN       CLEAR     78  62  57 S9        29.94S
WATERTOWN      CLEAR     77  66  68 S9        30.02S
BROOKINGS      CLEAR     76  66  71 S8        30.04S
SISSETON         N/A     78  63  59 S10       29.94F
$$

SDZ017-020-022-023-036>040-048>070-260300-
SOUTHEAST SOUTH DAKOTA

CITY           SKY/WX    TMP DP  RH WIND       PRES   REMARKS
SIOUX FALLS    PTCLDY    78  60  53 S9        30.05R
HURON          CLEAR     82  60  47 S9        29.98S
CHAMBERLAIN    CLEAR     79  56  45 SE8       30.00S
MITCHELL       CLEAR     81  62  52 S9        30.01S
YANKTON        CLEAR     79  63  57 SE7       30.03R
$$

ABBREVIATIONS USED IN REMARKS
   TC - TEMPERATURE IN CELSIUS
  WCI - WIND CHILL INDEX
   HX - HEAT INDEX
  VSB - VISIBILITY





USA.gov is the U.S. government's official web portal to all federal, state and local government web resources and services.